Find Dresden

NORAD ID: 65297 Int'l Des: 2025-185 Owner: ESPACE Country: RW operational
LEOCIRCULARRETROGRADESSO

Live Position

Loading 3D Globe...

About Dresden

Description loading...

Upcoming Passes

Passes for default location (London). Set your location on the main map for personalized predictions.

Altitude History

Loading altitude history...

Two-Line Element Set

1 65297U 25185A 26106.50149593 .00004356 00000-0 60733-3 0 9991
2 65297 97.9624 190.4607 0010786 266.3049 93.6928 14.78202431 34711
Epoch: Apr 16, 2026 • Age: 16 hours

Current Status

Altitude 653.5 km
Velocity 7.53 km/s
Sub-Earth Point -66.55°S, 55.12°W
Launch Date Aug 23, 2025
Age 0.6 years
Type other

Technical Details

Classification Payload
Mass 30.00 kg
Dry Mass 30.00 kg
Total Mass 30.00 kg
Length 0.60 m
Diameter 0.40 m
Span 2.00 m
Shape Box+ pan
Manufacturer ESPACE
Bus Type Calistus
Phase Status In Orbit
Owner/State ESPACE/RW

Most Searched